This demonstration page uses our WeatherBlox Daily Observations layout. Learn more.

Left ArrowRight Arrow

Hourly Observations for September 6, 2018

Temp ( °F °C ) Dew Point ( °F °C ) Humidity (%) Winds ( mph kmh ) Pressure ( in mb ) Visibility ( mi km ) Precip ( " mm )
12:53 am 00:53 Clear 79 26.1 64 17.8 60 60 NE 3 6 29.83 1010 10 16 0.00 0.00
1:53 am 01:53 Cloudy 81 27.2 63 17.2 54 54 NNW 7 11 29.83 1010 10 16 0.00 0.00
2:53 am 02:53 Mostly Clear 78 25.6 66 18.9 67 67 NE 9 15 29.81 1010 10 16 0.00 0.00
3:53 am 03:53 Clear 78 25.6 64 17.8 62 62 N 10 17 29.81 1010 10 16 0.00 0.00
4:53 am 04:53 Clear 77 25 64 17.8 64 64 NNE 8 13 29.81 1010 10 16 0.00 0.00
5:53 am 05:53 Clear 75 23.9 64 17.8 69 69 ENE 5 7 29.82 1010 10 16 0.00 0.00
6:53 am 06:53 Mostly Sunny 78 25.6 66 18.9 67 67 N 6 9 29.83 1010 10 16 0.00 0.00
7:53 am 07:53 Partly Cloudy 82 27.8 64 17.8 55 55 NE 12 19 29.84 1011 10 16 0.00 0.00
8:53 am 08:53 Partly Cloudy 84 28.9 70 21.1 63 63 N 10 17 29.84 1011 10 16 0.00 0.00
9:53 am 09:53 Partly Cloudy 87 30.6 70 21.1 57 57 NNW 18 30 29.83 1010 10 16 0.00 0.00
10:53 am 10:53 Partly Cloudy 87 30.6 70 21.1 57 57 N 17 28 29.83 1010 10 16 0.00 0.00
11:53 am 11:53 Partly Cloudy 88 31.1 72 22.2 59 59 NNW 25 41 29.82 1010 10 16 0.00 0.00
12:53 pm 12:53 Sunny 88 31.1 73 22.8 61 61 NNW 23 37 29.80 1009 10 16 0.00 0.00
1:53 pm 13:53 Partly Cloudy 89 31.7 73 22.8 59 59 NNW 24 39 29.78 1009 10 16 0.00 0.00
2:53 pm 14:53 Partly Cloudy 89 31.7 72 22.2 57 57 N 26 43 29.76 1008 10 16 0.00 0.00
3:53 pm 15:53 Sunny 88 31.1 72 22.2 59 59 N 29 46 29.75 1007 10 16 0.00 0.00
4:53 pm 16:53 Partly Cloudy 86 30 73 22.8 65 65 N 28 44 29.75 1007 10 16 0.00 0.00
5:53 pm 17:53 Partly Cloudy 84 28.9 73 22.8 70 70 N 25 41 29.76 1008 10 16 0.00 0.00
6:53 pm 18:53 Clear 83 28.3 72 22.2 70 70 NNE 10 17 29.79 1009 10 16 0.00 0.00
7:53 pm 19:53 Clear 83 28.3 72 22.2 70 70 SSE 6 9 29.82 1010 10 16 0.00 0.00
8:53 pm 20:53 Clear 82 27.8 70 21.1 67 67 SSE 5 7 29.85 1011 10 16 0.00 0.00
9:53 pm 21:53 Clear 81 27.2 72 22.2 74 74 W 5 7 29.87 1012 10 16 0.00 0.00
10:53 pm 22:53 Mostly Clear 81 27.2 73 22.8 77 77 Calm 29.88 1012 10 16 0.00 0.00
11:53 pm 23:53 Mostly Cloudy 80 26.7 73 22.8 79 79 Calm 29.87 1012 10 16 0.00 0.00

Powered by AerisWeather